Regional Weather Roundup
Issued by NWS

Home | Current Version | Previous Version | Graphics & Text | Print | Product List | Glossary On
Versions: 1 2 3 4 5 6 7 8 9 10 11 12 13 14 15 16 17 18 19 20 21 22 23 24 25 26 27 28 29 30 31 32 33 34 35 36 37 38 39 40 41 42 43 44 45 46 47 48 49 50
258
ASUS45 KCYS 220010
RWRWY

WYOMING REGIONAL WEATHER ROUNDUP
NATIONAL WEATHER SERVICE CHEYENNE WY
500 PM MST TUE NOV 21 2017

NOTE:  "FAIR" INDICATES FEW OR NO CLOUDS BELOW 12,000 FEET
WITH NO SIGNIFICANT WEATHER AND/OR OBSTRUCTIONS TO VISIBILITY.

WYZ001-220100-
YELLOWSTONE NATIONAL PARK

CITY           SKY/WX    TMP DP  RH WIND       PRES   REMARKS
LK YELLOWSTONE   N/A     32  31  96 CALM      30.38R
6HR MIN TEMP:  32; 6HR MAX TEMP:  37;

W YELLOWSTONE  NOT AVBL

$$
WYZ002>013-054>058-071-098>099-220100-
NORTHERN WYOMING

CITY           SKY/WX    TMP DP  RH WIND       PRES   REMARKS
JACKSON        MOCLDY    42  35  76 S12       30.36R
CODY           FAIR      42  31  64 CALM      30.18F
GREYBULL       FAIR      40  29  64 CALM      30.19F
6HR MIN TEMP:  35; 6HR MAX TEMP:  45;

WORLAND        FAIR      33  28  81 E5        30.19F WCI  29
6HR MIN TEMP:  33; 6HR MAX TEMP:  47;

SHERIDAN       FAIR      33  32  96 NW9       30.15F WCI  25
6HR MIN TEMP:  32; 6HR MAX TEMP:  44;

BUFFALO        FAIR      37  24  59 S6        30.17F WCI  32
6HR MIN TEMP:  31; 6HR MAX TEMP:  44;

GILLETTE       FAIR      28  22  78 S6        30.17F WCI  22
6HR MIN TEMP:  27; 6HR MAX TEMP:  44;

HULETT         FAIR      34  27  75 S9        30.19F WCI  26
NEWCASTLE      FAIR      32  21  64 CALM      30.24S

$$
WYZ014>020-022>026-101>103-220100-
CENTRAL WYOMING

CITY           SKY/WX    TMP DP  RH WIND       PRES   REMARKS
BIG PINEY      FAIR      38  31  76 N9        30.35R WCI  31
6HR MIN TEMP:  37; 6HR MAX TEMP:  48;

PINEDALE       CLOUDY    37  32  81 W3        30.37R
DUBOIS         FAIR      37  30  75 NW21      30.28R WCI  27
LANDER         FAIR      45  31  58 SW6       30.19F
6HR MIN TEMP:  42; 6HR MAX TEMP:  51;

RIVERTON       FAIR      41  31  67 NE6       30.21F
6HR MIN TEMP:  41; 6HR MAX TEMP:  48;

CASPER         FAIR      41  31  67 SW10      30.21S
6HR MIN TEMP:  36; 6HR MAX TEMP:  46;

DOUGLAS        FAIR      36  27  69 SE9       30.21F WCI  29
6HR MIN TEMP:  34; 6HR MAX TEMP:  45;


$$
WYZ021-027>030-104>119-220100-
SOUTHERN WYOMING

CITY           SKY/WX    TMP DP  RH WIND       PRES   REMARKS
EVANSTON       FAIR      42  37  82 SW9       30.38S
6HR MIN TEMP:  42; 6HR MAX TEMP:  49;

KEMMERER       FAIR      37  34  87 W12       30.38S WCI  30
FORT BRIDGER   CLOUDY    43  38  80 NW6       30.42R
ROCK SPRINGS   FAIR      43  34  70 W20       30.35R
6HR MIN TEMP:  43; 6HR MAX TEMP:  47;

DIXON          FAIR      39  33  78 CALM      30.36F
RAWLINS        FAIR      43  34  70 W17G25    30.29S
6HR MIN TEMP:  42; 6HR MAX TEMP:  49;

SARATOGA       FAIR      37  32  81 SW7       30.32S WCI  32
LARAMIE        FAIR      36  27  69 CALM      30.26F
6HR MIN TEMP:  35; 6HR MAX TEMP:  42; 6HR PCP: TRACE;

CHEYENNE       FAIR      36  32  85 SW13      30.27S WCI  27
6HR MIN TEMP:  36; 6HR MAX TEMP:  44;

TORRINGTON     FAIR      40  26  57 E5        30.24F
6HR MIN TEMP:  39; 6HR MAX TEMP:  47;

PINE BLUFFS    FAIR      36  27  69 MISG      30.28S

$$




USA.gov is the U.S. government's official web portal to all federal, state and local government web resources and services.